Powrót do katalogu

STARLINK-5842

AktywnyŁącznośćVLEO
NORAD 56491·PAYLOAD·🇺🇸 United States

Wystrzelony May 10, 2023 z Vandenberg Space Force Base

Loading…

Następne Przeloty (najbliższe 24 godziny)

TLE

ŚwieżeSource: CelesTrak SupGP

Epoka: Sep 15, 2026, 03:07 UTC

1 56491C 23064AV  26258.13034722  .00064416  00000+0  53987-2 0  2587
2 56491  70.0018 346.8091 0003427 266.3873 283.3038 14.98294827    17

Śledź STARLINK-5842 w czasie rzeczywistym z AllMySat

Download on the App Store